Time,TemperatureF,DewpointF,PressureIn,WindDirection,WindDirectionDegrees,WindSpeedMPH,WindSpeedGustMPH,Humidity,HourlyPrecipIn,Conditions,Clouds,dailyrainin,SoftwareType,DateUTC
2013-07-21 00:00:00,68.0,67.0,30.10,WSW,256,0.0,-999.0,97,-99.99,,,-99.99,,2013-07-21 04:00:00,
2013-07-21 00:01:00,67.0,66.0,30.09,WSW,256,0.0,-999.0,97,-99.99,,,-99.99,,2013-07-21 04:01:00,
2013-07-21 00:11:00,67.0,66.0,30.09,WSW,256,0.0,-999.0,97,-99.99,,,-99.99,,2013-07-21 04:11:00,
2013-07-21 00:22:00,67.0,66.0,30.09,WSW,256,1.0,-999.0,97,-99.99,,,-99.99,,2013-07-21 04:22:00,
2013-07-21 00:32:00,67.0,66.0,30.08,WSW,256,1.0,-999.0,97,-99.99,,,-99.99,,2013-07-21 04:32:00,
2013-07-21 00:43:00,67.0,66.0,30.08,WSW,256,1.0,-999.0,97,-99.99,,,-99.99,,2013-07-21 04:43:00,
2013-07-21 00:53:00,67.0,66.0,30.08,WSW,256,0.0,-999.0,98,-99.99,,,-99.99,,2013-07-21 04:53:00,
2013-07-21 01:02:00,68.0,67.0,30.09,WSW,256,0.0,-999.0,98,-99.99,,,-99.99,,2013-07-21 05:02:00,
2013-07-21 01:11:00,68.0,67.0,30.09,WSW,256,0.0,-999.0,98,-99.99,,,-99.99,,2013-07-21 05:11:00,
2013-07-21 01:22:00,68.0,67.0,30.08,WSW,257,0.0,-999.0,97,-99.99,,,-99.99,,2013-07-21 05:22:00,
2013-07-21 01:32:00,68.0,67.0,30.08,WNW,300,2.0,-999.0,97,-99.99,,,-99.99,,2013-07-21 05:32:00,
2013-07-21 01:42:00,68.0,67.0,30.08,WNW,300,2.0,-999.0,97,-99.99,,,-99.99,,2013-07-21 05:42:00,
2013-07-21 01:52:00,68.0,67.0,30.08,WNW,300,1.0,-999.0,96,-99.99,,,-99.99,,2013-07-21 05:52:00,
2013-07-21 02:01:00,68.0,67.0,30.08,WNW,300,1.0,-999.0,96,-99.99,,,-99.99,,2013-07-21 06:01:00,
2013-07-21 02:11:00,68.0,67.0,30.08,WNW,300,1.0,-999.0,96,-99.99,,,-99.99,,2013-07-21 06:11:00,
2013-07-21 02:22:00,67.0,66.0,30.08,WNW,300,0.0,-999.0,96,-99.99,,,-99.99,,2013-07-21 06:22:00,
2013-07-21 02:32:00,67.0,66.0,30.07,WNW,300,0.0,-999.0,96,-99.99,,,-99.99,,2013-07-21 06:32:00,
2013-07-21 02:42:00,67.0,66.0,30.07,WNW,300,0.0,-999.0,96,-99.99,,,-99.99,,2013-07-21 06:42:00,
2013-07-21 02:53:00,67.0,66.0,30.07,WNW,300,0.0,-999.0,97,-99.99,,,-99.99,,2013-07-21 06:53:00,
2013-07-21 03:01:00,66.0,65.0,30.06,WNW,300,1.0,-999.0,97,-99.99,,,-99.99,,2013-07-21 07:01:00,
2013-07-21 03:11:00,66.0,65.0,30.06,WNW,300,1.0,-999.0,97,-99.99,,,-99.99,,2013-07-21 07:11:00,
2013-07-21 03:22:00,66.0,65.0,30.06,NNW,342,1.0,-999.0,97,-99.99,,,-99.99,,2013-07-21 07:22:00,
2013-07-21 03:32:00,66.0,65.0,30.05,North,5,2.0,-999.0,97,-99.99,,,-99.99,,2013-07-21 07:32:00,
2013-07-21 03:43:00,66.0,65.0,30.05,North,5,2.0,-999.0,97,-99.99,,,-99.99,,2013-07-21 07:43:00,
2013-07-21 03:53:00,66.0,65.0,30.05,North,5,1.0,-999.0,97,-99.99,,,-99.99,,2013-07-21 07:53:00,
2013-07-21 04:01:00,65.0,64.0,30.05,North,5,0.0,-999.0,97,-99.99,,,-99.99,,2013-07-21 08:01:00,
2013-07-21 04:11:00,65.0,64.0,30.05,North,5,0.0,-999.0,97,-99.99,,,-99.99,,2013-07-21 08:11:00,
2013-07-21 04:22:00,65.0,64.0,30.05,North,5,0.0,-999.0,97,-99.99,,,-99.99,,2013-07-21 08:22:00,
2013-07-21 04:33:00,65.0,64.0,30.06,North,5,0.0,-999.0,97,-99.99,,,-99.99,,2013-07-21 08:33:00,
2013-07-21 04:43:00,65.0,64.0,30.06,North,5,0.0,-999.0,97,-99.99,,,-99.99,,2013-07-21 08:43:00,
2013-07-21 04:52:00,65.0,64.0,30.05,North,5,0.0,-999.0,97,-99.99,,,-99.99,,2013-07-21 08:52:00,
2013-07-21 05:02:00,65.0,64.0,30.06,North,5,0.0,-999.0,97,-99.99,,,-99.99,,2013-07-21 09:02:00,
2013-07-21 05:12:00,65.0,64.0,30.06,North,5,0.0,-999.0,97,-99.99,,,-99.99,,2013-07-21 09:12:00,
2013-07-21 05:22:00,64.0,63.0,30.06,North,5,0.0,-999.0,97,-99.99,,,-99.99,,2013-07-21 09:22:00,
2013-07-21 05:32:00,64.0,63.0,30.06,North,5,0.0,-999.0,97,-99.99,,,-99.99,,2013-07-21 09:32:00,
2013-07-21 05:42:00,64.0,63.0,30.06,North,5,0.0,-999.0,97,-99.99,,,-99.99,,2013-07-21 09:42:00,
2013-07-21 05:52:00,64.0,63.0,30.07,North,5,0.0,-999.0,97,-99.99,,,-99.99,,2013-07-21 09:52:00,
2013-07-21 06:02:00,64.0,63.0,30.07,North,5,0.0,-999.0,98,-99.99,,,-99.99,,2013-07-21 10:02:00,
2013-07-21 06:11:00,64.0,63.0,30.07,North,5,0.0,-999.0,98,-99.99,,,-99.99,,2013-07-21 10:11:00,
2013-07-21 06:22:00,64.0,63.0,30.07,West,263,0.0,-999.0,98,-99.99,,,-99.99,,2013-07-21 10:22:00,
2013-07-21 06:32:00,64.0,63.0,30.08,West,263,0.0,-999.0,98,-99.99,,,-99.99,,2013-07-21 10:32:00,
2013-07-21 06:43:00,64.0,63.0,30.08,West,263,0.0,-999.0,98,-99.99,,,-99.99,,2013-07-21 10:43:00,
2013-07-21 06:52:00,64.0,63.0,30.08,West,263,0.0,-999.0,98,-99.99,,,-99.99,,2013-07-21 10:52:00,
2013-07-21 07:02:00,64.0,63.0,30.08,West,263,0.0,-999.0,98,-99.99,,,-99.99,,2013-07-21 11:02:00,
2013-07-21 07:12:00,64.0,63.0,30.08,West,263,0.0,-999.0,98,-99.99,,,-99.99,,2013-07-21 11:12:00,
2013-07-21 07:22:00,65.0,65.0,30.08,West,263,0.0,-999.0,99,-99.99,,,-99.99,,2013-07-21 11:22:00,
2013-07-21 07:33:00,66.0,66.0,30.08,West,263,0.0,-999.0,99,-99.99,,,-99.99,,2013-07-21 11:33:00,
2013-07-21 07:43:00,66.0,66.0,30.08,West,263,0.0,-999.0,99,-99.99,,,-99.99,,2013-07-21 11:43:00,
2013-07-21 07:52:00,67.0,67.0,30.08,West,263,0.0,-999.0,99,-99.99,,,-99.99,,2013-07-21 11:52:00,
2013-07-21 08:01:00,68.0,67.0,30.08,NW,322,0.0,-999.0,98,-99.99,,,-99.99,,2013-07-21 12:01:00,
2013-07-21 08:11:00,68.0,67.0,30.08,NW,322,0.0,-999.0,98,-99.99,,,-99.99,,2013-07-21 12:11:00,
2013-07-21 08:22:00,68.0,67.0,30.09,NW,322,1.0,-999.0,97,-99.99,,,-99.99,,2013-07-21 12:22:00,
2013-07-21 08:32:00,69.0,68.0,30.09,NW,312,3.0,-999.0,95,-99.99,,,-99.99,,2013-07-21 12:32:00,
2013-07-21 08:43:00,69.0,68.0,30.09,NW,312,3.0,-999.0,95,-99.99,,,-99.99,,2013-07-21 12:43:00,
2013-07-21 08:53:00,70.0,68.0,30.09,NNW,344,5.0,-999.0,93,-99.99,,,-99.99,,2013-07-21 12:53:00,
2013-07-21 09:01:00,70.0,68.0,30.09,NNW,337,4.0,-999.0,93,-99.99,,,-99.99,,2013-07-21 13:01:00,
2013-07-21 09:12:00,70.0,68.0,30.09,NNW,337,4.0,-999.0,93,-99.99,,,-99.99,,2013-07-21 13:12:00,
2013-07-21 09:22:00,70.0,68.0,30.10,NW,305,4.0,-999.0,92,-99.99,,,-99.99,,2013-07-21 13:22:00,
2013-07-21 09:32:00,70.0,67.0,30.10,NNW,338,3.0,-999.0,91,-99.99,,,-99.99,,2013-07-21 13:32:00,
2013-07-21 09:43:00,70.0,67.0,30.10,NNW,338,3.0,-999.0,91,-99.99,,,-99.99,,2013-07-21 13:43:00,
2013-07-21 09:53:00,71.0,68.0,30.10,NNW,345,3.0,-999.0,90,-99.99,,,-99.99,,2013-07-21 13:53:00,
2013-07-21 10:01:00,72.0,69.0,30.10,West,278,4.0,-999.0,89,-99.99,,,-99.99,,2013-07-21 14:01:00,
2013-07-21 10:12:00,72.0,69.0,30.10,West,278,4.0,-999.0,89,-99.99,,,-99.99,,2013-07-21 14:12:00,
2013-07-21 10:23:00,72.0,69.0,30.10,NW,304,5.0,-999.0,89,-99.99,,,-99.99,,2013-07-21 14:23:00,
2013-07-21 10:32:00,73.0,69.0,30.11,NW,313,4.0,-999.0,88,-99.99,,,-99.99,,2013-07-21 14:32:00,
2013-07-21 10:43:00,73.0,69.0,30.11,NW,313,4.0,-999.0,88,-99.99,,,-99.99,,2013-07-21 14:43:00,
2013-07-21 10:53:00,73.0,69.0,30.11,NW,320,3.0,-999.0,88,-99.99,,,-99.99,,2013-07-21 14:53:00,
2013-07-21 11:02:00,72.0,69.0,30.11,NW,304,4.0,-999.0,89,-99.99,,,-99.99,,2013-07-21 15:02:00,
2013-07-21 11:11:00,72.0,69.0,30.11,NW,304,4.0,-999.0,89,-99.99,,,-99.99,,2013-07-21 15:11:00,
2013-07-21 11:22:00,71.0,69.0,30.13,NW,312,4.0,-999.0,92,-99.99,,,-99.99,,2013-07-21 15:22:00,
2013-07-21 11:32:00,72.0,70.0,30.13,NW,321,3.0,-999.0,93,-99.99,,,-99.99,,2013-07-21 15:32:00,
2013-07-21 11:43:00,72.0,70.0,30.13,NW,321,3.0,-999.0,93,-99.99,,,-99.99,,2013-07-21 15:43:00,
2013-07-21 11:53:00,73.0,69.0,30.12,WNW,290,4.0,-999.0,86,-99.99,,,-99.99,,2013-07-21 15:53:00,
2013-07-21 12:01:00,74.0,68.0,30.12,West,278,3.0,-999.0,83,-99.99,,,-99.99,,2013-07-21 16:01:00,
2013-07-21 12:11:00,74.0,68.0,30.12,West,278,3.0,-999.0,83,-99.99,,,-99.99,,2013-07-21 16:11:00,
2013-07-21 12:22:00,75.0,69.0,30.12,WNW,287,4.0,-999.0,82,-99.99,,,-99.99,,2013-07-21 16:22:00,
2013-07-21 12:32:00,75.0,69.0,30.11,WNW,292,5.0,-999.0,81,-99.99,,,-99.99,,2013-07-21 16:32:00,
2013-07-21 12:43:00,75.0,69.0,30.11,WNW,292,5.0,-999.0,81,-99.99,,,-99.99,,2013-07-21 16:43:00,
2013-07-21 12:52:00,76.0,70.0,30.12,WNW,298,6.0,-999.0,81,-99.99,,,-99.99,,2013-07-21 16:52:00,
2013-07-21 13:02:00,77.0,69.0,30.12,West,280,4.0,-999.0,76,-99.99,,,-99.99,,2013-07-21 17:02:00,
2013-07-21 13:11:00,77.0,69.0,30.12,West,280,4.0,-999.0,76,-99.99,,,-99.99,,2013-07-21 17:11:00,
2013-07-21 13:22:00,78.0,69.0,30.11,West,273,4.0,-999.0,75,-99.99,,,-99.99,,2013-07-21 17:22:00,
2013-07-21 13:33:00,78.0,69.0,30.11,NW,323,4.0,-999.0,73,-99.99,,,-99.99,,2013-07-21 17:33:00,
2013-07-21 13:43:00,78.0,69.0,30.11,NW,323,4.0,-999.0,73,-99.99,,,-99.99,,2013-07-21 17:43:00,
2013-07-21 13:53:00,78.0,68.0,30.11,NW,326,3.0,-999.0,72,-99.99,,,-99.99,,2013-07-21 17:53:00,
2013-07-21 14:01:00,78.0,69.0,30.10,WSW,249,2.0,-999.0,73,-99.99,,,-99.99,,2013-07-21 18:01:00,
2013-07-21 14:11:00,78.0,69.0,30.10,WSW,249,2.0,-999.0,73,-99.99,,,-99.99,,2013-07-21 18:11:00,
2013-07-21 14:22:00,80.0,70.0,30.09,NNW,337,1.0,-999.0,72,-99.99,,,-99.99,,2013-07-21 18:22:00,
2013-07-21 14:32:00,79.0,68.0,30.08,NNW,327,2.0,-999.0,69,-99.99,,,-99.99,,2013-07-21 18:32:00,
2013-07-21 14:43:00,79.0,68.0,30.08,NNW,327,2.0,-999.0,69,-99.99,,,-99.99,,2013-07-21 18:43:00,
2013-07-21 14:52:00,80.0,68.0,30.08,NNW,329,5.0,-999.0,68,-99.99,,,-99.99,,2013-07-21 18:52:00,
2013-07-21 15:01:00,78.0,67.0,30.07,NW,321,9.0,-999.0,69,-99.99,,,-99.99,,2013-07-21 19:01:00,
2013-07-21 15:11:00,78.0,67.0,30.07,NW,321,9.0,-999.0,69,-99.99,,,-99.99,,2013-07-21 19:11:00,
2013-07-21 15:22:00,79.0,68.0,30.06,NW,313,6.0,-999.0,68,-99.99,,,-99.99,,2013-07-21 19:22:00,
2013-07-21 15:32:00,79.0,67.0,30.06,NW,317,7.0,-999.0,67,-99.99,,,-99.99,,2013-07-21 19:32:00,
2013-07-21 15:42:00,79.0,67.0,30.06,NW,317,7.0,-999.0,67,-99.99,,,-99.99,,2013-07-21 19:42:00,
2013-07-21 15:52:00,79.0,66.0,30.05,NW,319,7.0,-999.0,65,-99.99,,,-99.99,,2013-07-21 19:52:00,
2013-07-21 16:01:00,78.0,66.0,30.06,WNW,286,5.0,-999.0,67,-99.99,,,-99.99,,2013-07-21 20:01:00,
2013-07-21 16:12:00,78.0,66.0,30.06,WNW,286,5.0,-999.0,67,-99.99,,,-99.99,,2013-07-21 20:12:00,
2013-07-21 16:22:00,77.0,67.0,30.06,West,281,5.0,-999.0,72,-99.99,,,-99.99,,2013-07-21 20:22:00,
2013-07-21 16:32:00,77.0,68.0,30.06,NNW,333,2.0,-999.0,73,-99.99,,,-99.99,,2013-07-21 20:32:00,
2013-07-21 16:43:00,77.0,68.0,30.06,NNW,333,2.0,-999.0,73,-99.99,,,-99.99,,2013-07-21 20:43:00,
2013-07-21 16:52:00,77.0,68.0,30.06,North,350,3.0,-999.0,75,-99.99,,,-99.99,,2013-07-21 20:52:00,
2013-07-21 17:01:00,77.0,67.0,30.08,NW,325,1.0,-999.0,71,-99.99,,,-99.99,,2013-07-21 21:01:00,
2013-07-21 17:11:00,77.0,67.0,30.08,NW,325,1.0,-999.0,71,-99.99,,,-99.99,,2013-07-21 21:11:00,
2013-07-21 17:22:00,77.0,66.0,30.08,North,360,5.0,-999.0,68,-99.99,,,-99.99,,2013-07-21 21:22:00,
2013-07-21 17:32:00,75.0,66.0,30.08,NW,319,4.0,-999.0,73,-99.99,,,-99.99,,2013-07-21 21:32:00,
2013-07-21 17:43:00,75.0,66.0,30.08,NW,319,4.0,-999.0,73,-99.99,,,-99.99,,2013-07-21 21:43:00,
2013-07-21 17:52:00,74.0,65.0,30.07,NNW,343,6.0,-999.0,74,-99.99,,,-99.99,,2013-07-21 21:52:00,
2013-07-21 18:01:00,74.0,66.0,30.07,WNW,286,3.0,-999.0,76,-99.99,,,-99.99,,2013-07-21 22:01:00,
2013-07-21 18:11:00,74.0,66.0,30.07,WNW,286,3.0,-999.0,76,-99.99,,,-99.99,,2013-07-21 22:11:00,
2013-07-21 18:22:00,74.0,66.0,30.07,NW,315,2.0,-999.0,75,-99.99,,,-99.99,,2013-07-21 22:22:00,
2013-07-21 18:32:00,75.0,67.0,30.07,NW,315,0.0,-999.0,75,-99.99,,,-99.99,,2013-07-21 22:32:00,
2013-07-21 18:43:00,75.0,67.0,30.07,NW,315,0.0,-999.0,75,-99.99,,,-99.99,,2013-07-21 22:43:00,
2013-07-21 18:52:00,75.0,68.0,30.07,NW,315,0.0,-999.0,80,-99.99,,,-99.99,,2013-07-21 22:52:00,
2013-07-21 19:02:00,75.0,68.0,30.07,NW,315,0.0,-999.0,80,-99.99,,,-99.99,,2013-07-21 23:02:00,
2013-07-21 19:11:00,75.0,68.0,30.07,NW,315,0.0,-999.0,80,-99.99,,,-99.99,,2013-07-21 23:11:00,
2013-07-21 19:22:00,74.0,69.0,30.07,NW,315,0.0,-999.0,84,-99.99,,,-99.99,,2013-07-21 23:22:00,
2013-07-21 19:32:00,73.0,69.0,30.06,NW,315,0.0,-999.0,86,-99.99,,,-99.99,,2013-07-21 23:32:00,
2013-07-21 19:42:00,73.0,69.0,30.06,NW,315,0.0,-999.0,86,-99.99,,,-99.99,,2013-07-21 23:42:00,
2013-07-21 19:53:00,73.0,68.0,30.07,NW,315,0.0,-999.0,85,-99.99,,,-99.99,,2013-07-21 23:53:00,
2013-07-21 20:01:00,72.0,67.0,30.07,NW,315,0.0,-999.0,85,-99.99,,,-99.99,,2013-07-22 00:01:00,
2013-07-21 20:11:00,72.0,67.0,30.07,NW,315,0.0,-999.0,85,-99.99,,,-99.99,,2013-07-22 00:11:00,
2013-07-21 20:22:00,72.0,68.0,30.06,NW,315,0.0,-999.0,87,-99.99,,,-99.99,,2013-07-22 00:22:00,
2013-07-21 20:32:00,72.0,69.0,30.07,NW,315,0.0,-999.0,89,-99.99,,,-99.99,,2013-07-22 00:32:00,
2013-07-21 20:42:00,72.0,69.0,30.07,NW,315,0.0,-999.0,89,-99.99,,,-99.99,,2013-07-22 00:42:00,
2013-07-21 20:53:00,71.0,68.0,30.07,NW,315,0.0,-999.0,89,-99.99,,,-99.99,,2013-07-22 00:53:00,
2013-07-21 21:02:00,70.0,67.0,30.07,NW,315,0.0,-999.0,90,-99.99,,,-99.99,,2013-07-22 01:02:00,
2013-07-21 21:12:00,70.0,67.0,30.07,NW,315,0.0,-999.0,90,-99.99,,,-99.99,,2013-07-22 01:12:00,
2013-07-21 21:22:00,70.0,67.0,30.07,NW,315,0.0,-999.0,91,-99.99,,,-99.99,,2013-07-22 01:22:00,
2013-07-21 21:32:00,69.0,67.0,30.08,NW,315,0.0,-999.0,92,-99.99,,,-99.99,,2013-07-22 01:32:00,
2013-07-21 21:42:00,69.0,67.0,30.08,NW,315,0.0,-999.0,92,-99.99,,,-99.99,,2013-07-22 01:42:00,
2013-07-21 21:52:00,68.0,66.0,30.09,NW,315,1.0,-999.0,93,-99.99,,,-99.99,,2013-07-22 01:52:00,
2013-07-21 22:02:00,68.0,66.0,30.09,NW,315,0.0,-999.0,94,-99.99,,,-99.99,,2013-07-22 02:02:00,
2013-07-21 22:11:00,68.0,66.0,30.09,NW,315,0.0,-999.0,94,-99.99,,,-99.99,,2013-07-22 02:11:00,
2013-07-21 22:22:00,67.0,66.0,30.10,NW,315,1.0,-999.0,95,-99.99,,,-99.99,,2013-07-22 02:22:00,
2013-07-21 22:32:00,67.0,66.0,30.10,NW,315,0.0,-999.0,95,-99.99,,,-99.99,,2013-07-22 02:32:00,
2013-07-21 22:43:00,67.0,66.0,30.10,NW,315,0.0,-999.0,95,-99.99,,,-99.99,,2013-07-22 02:43:00,
2013-07-21 22:52:00,67.0,66.0,30.10,NW,315,0.0,-999.0,95,-99.99,,,-99.99,,2013-07-22 02:52:00,
2013-07-21 23:01:00,67.0,66.0,30.11,NW,315,0.0,-999.0,95,-99.99,,,-99.99,,2013-07-22 03:01:00,
2013-07-21 23:12:00,67.0,66.0,30.11,NW,315,0.0,-999.0,95,-99.99,,,-99.99,,2013-07-22 03:12:00,
2013-07-21 23:22:00,67.0,66.0,30.11,NW,315,0.0,-999.0,96,-99.99,,,-99.99,,2013-07-22 03:22:00,
2013-07-21 23:33:00,67.0,66.0,30.11,NW,315,0.0,-999.0,96,-99.99,,,-99.99,,2013-07-22 03:33:00,
2013-07-21 23:43:00,67.0,66.0,30.11,NW,315,0.0,-999.0,96,-99.99,,,-99.99,,2013-07-22 03:43:00,
2013-07-21 23:53:00,67.0,66.0,30.11,NW,315,0.0,-999.0,96,-99.99,,,-99.99,,2013-07-22 03:53:00,